Location: Bussy-Saint-Georges
(48.8410°N, 2.7017°E)
Time: 04:43:27
(UTC+00:00)

Meteor 2-10 Rocket - Pass Details

Date: 18 October 2021
Orbit: 733 x 885 km, 81.2° (Epoch: 30 November)

Event Time Altitude Azimuth Distance (km) Brightness Sun altitude
Rises 18:12:57 0° 155° (SSE) 3,434 6.6 -13.8°
Reaches altitude 10° 18:15:44 10° 144° (SE) 2,482 5.8 -14.2°
Maximum altitude 18:20:21 27° 89° (E) 1,563 4.5 -15.0°
Drops below altitude 10° 18:24:51 10° 33° (NNE) 2,417 5.8 -15.7°
Sets 18:27:31 0° 22° (NNE) 3,327 6.6 -16.2°
